This is the latest recevied weather packets stored in our database for station/object VE9LJW. If no packets are shown the sender has not sent any weather packets the latest 10 day(s).
| Time | Temp. | Humidity | Pressure | Rain* | Wind** | Luminosity | Snow |
|---|---|---|---|---|---|---|---|
| 1778102598 | 16.67° C | 91% | 1006.5 hPa | 0 mm | - | 17 W/m² | - |
| 1778102293 | 16.67° C | 91% | 1006.7 hPa | 0 mm | - | 18 W/m² | - |
| 1778101989 | 16.67° C | 91% | 1006.6 hPa | 0 mm | - | 21 W/m² | - |
| 1778101687 | 16.67° C | 91% | 1006.6 hPa | 0 mm | - | 27 W/m² | - |
| 1778101383 | 16.67° C | 90% | 1006.8 hPa | 0 mm | - | 32 W/m² | - |
| 1778101081 | 16.67° C | 90% | 1006.6 hPa | 0 mm | - | 32 W/m² | - |
| 1778100776 | 16.67° C | 90% | 1006.6 hPa | 0 mm | - | 44 W/m² | - |
| 1778100473 | 17.22° C | 90% | 1006.5 hPa | 0 mm | - | 42 W/m² | - |
| 1778100171 | 17.22° C | 90% | 1006.6 hPa | 0 mm | - | 44 W/m² | - |
| 1778099869 | 17.22° C | 90% | 1006.5 hPa | 0 mm | - | 49 W/m² | - |
| 1778099566 | 16.67° C | 90% | 1006.6 hPa | 0 mm | - | 57 W/m² | - |
| 1778099263 | 17.22° C | 90% | 1006.7 hPa | 0 mm | - | 54 W/m² | - |
| 1778098959 | 16.67° C | 90% | 1006.8 hPa | 0 mm | - | 72 W/m² | - |
| 1778098656 | 16.67° C | 90% | 1006.6 hPa | 0 mm | - | 42 W/m² | - |
| 1778098353 | 16.67° C | 90% | 1006.8 hPa | 0 mm | - | 53 W/m² | - |
| 1778098050 | 16.67° C | 90% | 1006.7 hPa | 0 mm | - | 67 W/m² | - |
| 1778097746 | 16.67° C | 90% | 1006.8 hPa | 0 mm | - | 59 W/m² | - |
| 1778097442 | 16.67° C | 90% | 1006.8 hPa | 0 mm | - | 69 W/m² | - |
| 1778097139 | 16.67° C | 90% | 1006.9 hPa | 0 mm | - | 72 W/m² | - |
| 1778096836 | 16.67° C | 90% | 1006.8 hPa | 0 mm | - | 73 W/m² | - |
| 1778096533 | 16.67° C | 91% | 1006.7 hPa | 0 mm | - | 87 W/m² | - |
| 1778096230 | 16.67° C | 91% | 1007 hPa | 0 mm | - | 88 W/m² | - |
| 1778095927 | 16.67° C | 90% | 1007 hPa | 0 mm | - | 98 W/m² | - |
| 1778095619 | 16.67° C | 91% | 1006.9 hPa | 0 mm | - | 100 W/m² | - |
| 1778095315 | 16.67° C | 90% | 1006.8 hPa | 0 mm | - | 130 W/m² | - |
* Rain latest hour (hover to see other rain measurements)
** Current wind speed in m/s (hover to see current wind gust speed)